Regional Weather Roundup
Issued by NWS

Home | Current Version | Previous Version | Text Only | Print | Product List | Glossary Off
Versions: 1 2 3 4 5 6 7 8 9 10 11 12 13 14 15 16 17 18 19 20 21 22 23 24 25 26 27 28 29 30 31 32 33 34 35 36 37 38 39 40 41 42 43 44 45 46 47 48 49 50

000
ASUS43 KBIS 252010
RWRND

NORTH DAKOTA REGIONAL WEATHER ROUNDUP
NATIONAL WEATHER SERVICE BISMARCK ND
300 PM CDT THU AUG 25 2016

NOTE: "FAIR" INDICATES FEW OR NO CLOUDS BELOW 12,000 FEET WITH NO
SIGNIFICANT WEATHER AND/OR OBSTRUCTIONS TO VISIBILITY.


NDZ001>003-009>011-017-252100-
NORTHWEST NORTH DAKOTA

CITY           SKY/WX    TMP DP  RH WIND       PRES   REMARKS
WILLISTON      PTSUNNY   74  39  28 W10       30.14F
MINOT          MOSUNNY   72  41  32 W15       30.10F
MINOT AFB      SUNNY     72  42  34 NW14G21   30.08F
$$

NDZ018>021-031>035-040>046-252100-
SOUTHWEST NORTH DAKOTA

CITY           SKY/WX    TMP DP  RH WIND       PRES   REMARKS
BISMARCK       CLOUDY    68  48  48 N12       30.16F
DICKINSON      CLOUDY    68  36  30 NW10      30.17F
GARRISON         N/A     67  45  45 NW13      30.13F
HETTINGER ARPT PTSUNNY   66  42  41 NW7       30.22F
$$

NDZ004>008-012>016-024-026-027-054-252100-
NORTHEAST NORTH DAKOTA

CITY           SKY/WX    TMP DP  RH WIND       PRES   REMARKS
GRAND FORKS    PTSUNNY   69  50  50 NW17      30.04R
GRND FRKS AFB  MOSUNNY   67  50  53 N15G21    30.06R
DEVILS LAKE    CLOUDY    65  49  56 NW9       30.08F
$$

NDZ022-023-025-028>030-036>039-047>053-252100-
SOUTHEAST NORTH DAKOTA

CITY           SKY/WX    TMP DP  RH WIND       PRES   REMARKS
FARGO          PTSUNNY   69  50  50 NW10      30.06S
JAMESTOWN      CLOUDY    65  52  62 NW12      30.11R
$$





USA.gov is the U.S. government's official web portal to all federal, state and local government web resources and services.